Weather in Staroye Pogorelovo

Russia / Ulyanovsk Oblast     54°07′13″N   46°51′14″E
temp.,
°C
wind,
m/s
gust,
m/s
humid.,
%
clouds,
%
prec.,
mm/h
press.,
hPa
HPBL,
m
28 january, thu
thu2801:00−4s61487100 0.0 1019521
04:00−3s51486100 0.0 1017482
07:00−4s51386100 0.0 1017383
10:00−5sse51386100 0.0 1016374
13:00−5sse51189100 0.0 1015359
16:00−6sse41091100 0.0 1014370
19:00−7sse41193100 0.0 1014390
22:00−8s41194100 0.1 1013409
29 january, fri
fri2901:00−6s3993100 0.1 1013516
04:00−6sse3894100 0.1 1012377
07:00−5sse4994100 0.1 1011506
10:00−4sse4993100 0.1 1010538
13:00−2sse599299 0.1 1009494
16:00−2s499399 0.3 1008500
19:00−3s3796100 0.1 1008286
22:00−3ssw41095100 0.8 1007447
30 january, sat
sat3001:00−4ssw31093100 0.1 1007304
04:00−5s4129375 0.1 1006317
07:00−5s5129364 0.0 1005439
10:00−3s6149282 0.0 1003667
13:00−1s81694100 0.9 10011251
16:00−1sw71282100 1.7 10021130
19:00−5sw5129147 0.0 1006548
22:00−5sw4118974 0.0 1008552
31 january, sun
sun3101:00−6ssw41193100 0.0 1009346
04:00−5s41287100 0.0 1008382
07:000s61397100 0.4 1006772
10:000s71594100 0.8 1005852
13:00+1s91970100 0.0 10041142
16:00−1s112185100 0.2 10011231
19:00−2s91791100 2.8 9971015
22:000sw81596100 5.7 9951269
1 february, mon
mon101:00−3sw9168999 0.2 9981098
04:00−5wsw91787100 0.4 1004917
07:00−7wsw61490100 0.1 1009675
10:00−7wsw61390100 0.1 1013651
13:00−5wsw5108896 0.0 1016543
16:00−5sw499097 0.0 1018448
19:00−7ssw389399 0.0 1018263
22:00−5s41191100 0.1 1017374